Regional Weather Roundup
Issued by NWS

Home | Current Version | Previous Version | Text Only | Print | Product List | Glossary Off
Versions: 1 2 3 4 5 6 7 8 9 10 11 12 13 14 15 16 17 18 19 20 21 22 23 24 25 26 27 28 29 30 31 32 33 34 35 36 37 38 39 40 41 42 43 44 45 46 47 48 49 50

000
ASUS43 KOAX 260702
RWRNE

WEATHER ROUNDUP FOR NEBRASKA
NATIONAL WEATHER SERVICE OMAHA NE
200 AM CDT MON SEP 26 2016

NOTES: SATELLITE DATA IS BEING USED TO AUGMENT CLOUD COVER ABOVE
       12000 FEET.
       "FAIR" INDICATES FEW OR NO CLOUDS BELOW 12,000 FEET WITH NO
       SIGNIFICANT WEATHER AND/OR OBSTRUCTIONS TO VISIBILITY.

  * THESE STATIONS DO NOT REPORT WEATHER SUCH AS RAIN...SNOW OR FOG.

NEZ001>004-019>022-054>056-260800-
NEBRASKA PANHANDLE

CITY           SKY/WX    TMP DP  RH WIND       PRES   REMARKS
SCOTTSBLUFF    CLEAR     39  36  89 N3        30.39F
ALLIANCE       CLEAR     35  32  88 NW5       30.37F WCI  31
CHADRON        CLEAR     38  34  85 SW6       30.36S WCI  33
KIMBALL        CLEAR     39  35  86 W5        30.42S
SIDNEY         CLEAR     37  33  85 W7        30.41F WCI  32
$$

NEZ057>060-069>072-079>082-260800-
SOUTHWEST NEBRASKA

CITY           SKY/WX    TMP DP  RH WIND       PRES   REMARKS
NORTH PLATTE   CLEAR     39  32  76 NW3       30.36S
IMPERIAL       CLEAR     43  34  70 W3        30.39S
LEXINGTON      CLEAR     38  32  78 W7        30.34S WCI  33
MCCOOK         CLEAR     40  33  76 W9        30.37R WCI  34
OGALLALA       CLEAR     39  35  83 SW5       30.38F
$$

NEZ005>010-023>029-035>040-094-260800-
NORTH CENTRAL NEBRASKA

CITY           SKY/WX    TMP DP  RH WIND       PRES   REMARKS
VALENTINE      CLEAR     38  31  76 W5        30.32R WCI  34
AINSWORTH      CLEAR     42  34  73 W6        30.31S
BROKEN BOW     CLEAR     36  31  82 CALM      30.32S
O`NEILL        CLEAR     45  32  61 W6        30.27F
ORD            CLEAR     39  33  79 NW5       30.29S
THEDFORD       CLEAR     38  32  77 CALM      30.34S
$$

NEZ041-046>049-061>064-073>077-083>087-260800-
SOUTH CENTRAL NEBRASKA

CITY           SKY/WX    TMP DP  RH WIND       PRES   REMARKS
GRAND ISLAND   CLEAR     43  36  76 NW3       30.30S
AURORA         CLEAR     43  40  89 W6        30.29S
HASTINGS       CLEAR     47  35  63 W3        30.31S
HEBRON         CLEAR     46  39  75 W3        30.30S
HOLDREGE       CLEAR     42  32  68 W3        30.34R
KEARNEY *      CLEAR     43  30  61 W7        30.31S
YORK           CLEAR     43  39  87 W6        30.29S
$$

NEZ011>018-030>034-042>045-260800-
NORTHEAST NEBRASKA

CITY           SKY/WX    TMP DP  RH WIND       PRES   REMARKS
NORFOLK        CLEAR     48  34  58 W12       30.25S
ALBION         CLEAR     42  35  74 NW3       30.28S
BLAIR          CLEAR     51  40  64 W3        30.21F
FREMONT        CLEAR     44  40  85 CALM      30.23F
TEKAMAH        CLEAR     50  39  66 W8        30.22R
WAYNE          CLEAR     48  38  67 W8        30.24S
$$

NEZ050>053-065>068-078-088>093-260800-
SOUTHEAST NEBRASKA

CITY           SKY/WX    TMP DP  RH WIND       PRES   REMARKS
LINCOLN        CLEAR     47  40  76 CALM      30.27R
OMAHA EPPLEY   CLEAR     50  40  68 NW8       30.22S
BEATRICE       CLEAR     46  42  86 CALM      30.27R
FALLS CITY     PTCLDY    51  44  77 W8        30.23S
NEBRASKA CITY  CLEAR     53  31  43 NW8       30.24R
PLATTSMOUTH    PTCLDY    49  39  67 W6        30.22S
$$

NEZ044-045-051>053-067-260800-
OMAHA AREA

CITY           SKY/WX    TMP DP  RH WIND       PRES   REMARKS
OMAHA EPPLEY   CLEAR     50  40  68 NW8       30.22S
BLAIR          CLEAR     51  40  64 W3        30.21F
FREMONT        CLEAR     44  40  85 CALM      30.23F
MILLARD        CLEAR     53  41  62 CALM      30.22F
OFFUTT AFB     CLEAR     50  42  72 NW8       30.21S
PLATTSMOUTH    PTCLDY    49  39  67 W6        30.22S
WAHOO          FAIR      53  39  60 W7        30.24S
$$



USA.gov is the U.S. government's official web portal to all federal, state and local government web resources and services.